Tracking 30743 objects as of 21-Jun-2025
HD Live streaming from Space Station
objects crossing your sky now

FENGYUN 1C DEB

Track FENGYUN 1C DEB now!
10-day predictions


NORAD ID: 37415
Int'l Code: 1999-025EGH
Perigee: 861.0 km
Apogee: 1,283.5 km
Inclination: 99.0 °
Period: 106.5 minutes
Semi major axis: 7443 km
RCS: 0.0105 m2 (small)
Launch date: May 10, 1999
Source: People's Republic of China (PRC)
Launch site: Taiyaun Space Center, China (TSC)

Note: This is SATELLITE DEBRIS
Your satellite tracking list
Your tracking list is empty




NASA's NSSDC Master Catalog

Two Line Element Set (TLE):
1 37415U 99025EGH 25161.61876916  .00000200  00000-0  28472-3 0  9992
2 37415  98.9668 286.8914 0283862 294.9514  62.2379 13.51943328884333
Source of the keplerian elements: AFSPC